"TOA5","AWS1","CR1000","7964","CR1000.Std.14","CPU:AWS1_114.CR1","64363","TBL110"
"TIMESTAMP","RECORD","Wind_spd_WVc(1)","Wind_spd_WVc(2)","Air_Temp_Avg","Humidity_Avg","SW_upper_Wm2_Avg","Rain_Tot","Press_Avg","Issui_Tot","Depth_cm","SR50A_Raw","Quality","Ground_Temp_Avg(1)","Ground_Temp_Avg(2)","SW_lower_Wm2_Avg","Albedo_Avg","SWC_per(1)","SWC_per(2)","Period(1)","Period(2)"
"TS","RN","","","","","","","","","","","","","","","","","","",""
"","","WVc","WVc","Avg","Avg","Avg","Tot","Avg","Tot","Smp","Smp","Smp","Avg","Avg","Avg","Avg","Smp","Smp","Smp","Smp"
"2016-05-14 00:00:00",235357,0.499,23.92,10.93,86.6,0,0,872.2088,0,-3.817,3.155,190,15.05,13.34,0.5381148,0,49.57,57.62,33.19,35.13
"2016-05-14 00:10:00",235358,0.547,39.99,11.1,84.2,0,0,872.2551,0,-3.711,3.153,187,14.94,13.32,0.4547449,0,49.57,57.62,33.19,35.13
"2016-05-14 00:20:00",235359,0.251,302.2,11.1,84.8,0,0,872.4489,0,-3.825,3.157,188,14.97,13.32,0.322111,0,49.51,57.62,33.18,35.13
"2016-05-14 00:30:00",235360,0.439,342.7,10.62,91.8,0,0,872.4615,0,-3.315,3.152,196,14.91,13.32,0,0,49.51,57.62,33.18,35.13
"2016-05-14 00:40:00",235361,0.251,265.6,10.82,88.8,0,0,872.4615,0,-4.102,3.159,190,14.87,13.32,0.1515816,0,49.51,57.62,33.18,35.13
"2016-05-14 00:50:00",235362,0.483,310.7,11.06,85.6,0,0,872.472,0,-4.041,3.156,186,14.88,13.32,0.4812717,0,49.57,57.56,33.19,35.12
"2016-05-14 01:00:00",235363,0.151,318.7,10.9,88.3,0,0,872.3942,0,-4.745,3.167,187,14.86,13.32,0.05684311,0,49.57,57.56,33.19,35.12
"2016-05-14 01:10:00",235364,0.445,311.6,10.45,92.6,0,0,872.3583,0,-4.264,3.163,184,14.8,13.32,0,0,49.51,57.56,33.18,35.12
"2016-05-14 01:20:00",235365,0.256,294.6,10.55,89.8,0,0,872.2551,0,-4.362,3.163,187,14.78,13.32,0,0,49.51,57.56,33.18,35.12
"2016-05-14 01:30:00",235366,0.638,316.6,10.6,88.4,0,0,872.4573,0,-4.871,3.168,172,14.71,13.33,0.1212653,0,49.57,57.56,33.19,35.12
"2016-05-14 01:40:00",235367,0.196,359.3,10.03,97.3,0,0,872.5541,0,-4.581,3.17,184,14.71,13.34,0,0,49.57,57.62,33.19,35.13
"2016-05-14 01:50:00",235368,0.012,325.6,9.59,100,0,0,872.491,0,-4.56,3.171,193,14.7,13.37,0,0,49.57,57.56,33.19,35.12
"2016-05-14 02:00:00",235369,0.228,281.7,9.52,100,0,0,872.4615,0,-4.532,3.17,188,14.62,13.37,0,0,49.57,57.56,33.19,35.12
"2016-05-14 02:10:00",235370,0.12,272.9,9.66,100,0,0,872.4658,0,-4.683,3.171,183,14.62,13.37,0.322111,0,49.51,57.56,33.18,35.12
"2016-05-14 02:20:00",235371,0.09,167.5,9.62,100,0,0,872.5541,0,-4.458,3.17,193,14.54,13.37,0.2766365,0,49.51,57.56,33.18,35.12
"2016-05-14 02:30:00",235372,0.341,194.9,9.5,100,0,0,872.2298,0,-4.584,3.171,188,14.54,13.37,0.3107423,0,49.51,57.56,33.18,35.12
"2016-05-14 02:40:00",235373,0.254,139.1,9.49,100,0,0,872.2088,0,-4.483,3.17,172,14.48,13.36,0.2690574,0,49.51,57.56,33.18,35.12
"2016-05-14 02:50:00",235374,0.159,185,9.67,100,0,0,872.2088,0,-4.378,3.168,189,14.44,13.34,0.4547449,0,49.57,57.56,33.19,35.12
"2016-05-14 03:00:00",235375,0.306,279.2,9.74,98.7,0,0,872.3015,0,-4.301,3.167,193,14.46,13.34,0.4547449,0,49.57,57.56,33.19,35.12
"2016-05-14 03:10:00",235376,0.528,175.5,9.62,99.8,0,0,872.2593,0,-4.381,3.169,194,14.39,13.31,0.07200127,0,49.51,57.56,33.18,35.12
"2016-05-14 03:20:00",235377,0.549,160.6,9.38,100,0,0,872.4636,0,-4.563,3.172,188,14.36,13.26,0,0,49.51,57.51,33.18,35.1
"2016-05-14 03:30:00",235378,0.881,177.6,9.42,100,0,0,872.5226,0,-4.535,3.171,193,14.36,13.24,0.3827437,0,49.57,57.51,33.19,35.1
"2016-05-14 03:40:00",235379,1.138,192,9.5,100,0,0,872.6447,0,-4.434,3.17,194,14.28,13.24,0.4357972,0,49.57,57.51,33.19,35.1
"2016-05-14 03:50:00",235380,0.92,191,9.64,100,0,0,872.6911,0,-4.455,3.169,176,14.28,13.24,0.4509554,0,49.51,57.51,33.18,35.1
"2016-05-14 04:00:00",235381,0.823,166.7,9.66,100,0,0,872.5858,0,-4.406,3.169,193,14.27,13.24,0.1440025,0,49.51,57.51,33.18,35.1
"2016-05-14 04:10:00",235382,1.086,188.5,9.7,97.3,0,0,872.6764,0,-4.505,3.169,185,14.19,13.24,0.07200127,0,49.51,57.51,33.18,35.1
"2016-05-14 04:20:00",235383,0.904,179.3,9.89,89.7,0,0,872.5394,0,-4.526,3.168,188,14.19,13.24,0.1098967,0,49.57,57.51,33.19,35.1
"2016-05-14 04:30:00",235384,1.087,172.4,10.01,84.9,0,0,872.7142,0,-4.446,3.166,189,14.2,13.24,0.2084248,0,49.51,57.51,33.18,35.1
"2016-05-14 04:40:00",235385,1.042,179,10.17,80.3,0,0,872.7142,0,-4.601,3.168,189,14.08,13.24,0.280426,0,49.57,57.51,33.19,35.1
"2016-05-14 04:50:00",235386,0.817,184.5,10.26,76.63,0.08253595,0,872.7142,0,-4.622,3.167,187,14.11,13.25,0.4926403,0.434,49.57,57.45,33.19,35.09
"2016-05-14 05:00:00",235387,0.511,205.5,10.15,75.09,1.953351,0,872.71,0,-4.418,3.165,194,14.08,13.3,0.6783278,0.295,49.51,57.45,33.18,35.09
"2016-05-14 05:10:00",235388,0.62,167.3,10.1,73.17,7.07058,0,872.8764,0,-3.961,3.161,185,14.02,13.29,1.409709,0.203,49.57,57.45,33.19,35.09
"2016-05-14 05:20:00",235389,0.606,176.9,10.42,70.42,13.65773,0,872.9481,0,-4.464,3.164,193,14.04,13.28,2.637521,0.196,49.51,57.45,33.18,35.09
"2016-05-14 05:30:00",235390,0.837,184.2,10.82,67.25,21.32965,0,872.9628,0,-5.22,3.169,174,14.01,13.23,3.781962,0.178,49.51,57.45,33.18,35.09
"2016-05-14 05:40:00",235391,0.556,188.9,11.01,65.61,30.12169,0,873.0154,0,-4.604,3.162,171,13.93,13.23,5.077985,0.168,49.57,57.45,33.19,35.09
"2016-05-14 05:50:00",235392,0.347,186.7,11.13,66.33,38.9216,0,872.9691,0,-4.65,3.161,180,13.94,13.23,10.67893,0.273,49.51,57.45,33.18,35.09
"2016-05-14 06:00:00",235393,0.524,336.5,10.71,73.29,58.08959,0,872.967,0,-4.076,3.166,191,13.89,13.23,17.01504,0.312,49.51,57.45,33.18,35.09
"2016-05-14 06:10:00",235394,0.875,329,9.06,98.5,62.42076,0,872.8469,0,-4.032,3.168,194,13.84,13.2,20.23994,0.332,49.57,57.45,33.19,35.09
"2016-05-14 06:20:00",235395,0.229,128.1,9.49,99.3,159.9743,0,872.8196,0,-3.614,3.16,186,13.84,13.2,29.40305,0.225,49.51,57.45,33.18,35.09
"2016-05-14 06:30:00",235396,0.27,93.6,10.13,88.3,150.2036,0,872.7585,0,-4.428,3.168,193,13.82,13.21,32.07846,0.219,49.51,57.45,33.18,35.09
"2016-05-14 06:40:00",235397,0.566,355.2,9.62,96.3,109.1479,0,872.7816,0,-4.279,3.168,180,13.78,13.16,34.80693,0.322,49.57,57.39,33.19,35.07
"2016-05-14 06:50:00",235398,0.623,352.4,9.51,100,147.59,0,872.9186,0,-4.329,3.168,189,13.76,13.15,26.67837,0.199,49.51,57.45,33.18,35.09
"2016-05-14 07:00:00",235399,0.646,359.8,9.69,98.9,147.5979,0,872.9733,0,-4.045,3.164,180,13.71,13.15,35.82632,0.253,49.51,57.39,33.18,35.07
"2016-05-14 07:10:00",235400,0.671,0.483,10.04,93.7,152.6326,0,873.0217,0,-3.86,3.16,190,13.63,13.15,34.9282,0.231,49.51,57.39,33.18,35.07
"2016-05-14 07:20:00",235401,0.742,353.8,10.25,91.7,173.4749,0,873.1776,0,-4.035,3.161,188,13.67,13.15,34.99262,0.207,49.51,57.39,33.18,35.07
"2016-05-14 07:30:00",235402,0.644,8.74,10.62,87.2,173.6517,0,873.2156,0,-3.005,3.148,189,13.67,13.15,40.74135,0.235,49.57,57.39,33.19,35.07
"2016-05-14 07:40:00",235403,0.63,9.07,11.25,79.49,249.18,0,873.2492,0,-3.474,3.149,201,13.67,13.15,47.27452,0.201,49.51,57.39,33.18,35.07
"2016-05-14 07:50:00",235404,0.734,13.02,11.76,75.42,462.0559,0,873.2345,0,-4.182,3.154,187,13.6,13.15,53.30368,0.115,49.51,57.39,33.18,35.07
"2016-05-14 08:00:00",235405,0.477,18.26,12.26,73.59,532.6752,0,873.2766,0,-1.962,3.128,253,13.56,13.14,75.45734,0.141,49.51,57.39,33.18,35.07
"2016-05-14 08:10:00",235406,0.513,12,12.8,71.02,574.3666,0,873.3224,0,-3.129,3.138,208,13.63,13.08,89.80058,0.156,49.51,57.39,33.18,35.07
"2016-05-14 08:20:00",235407,0.591,7.788,13.19,70.49,642.6231,0,873.1638,0,-3.114,3.135,201,13.6,13.04,103.8849,0.162,49.57,57.39,33.19,35.07
"2016-05-14 08:30:00",235408,0.694,359,13.29,68.32,680.2512,0,873.1312,0,-3.533,3.139,193,13.56,13,110.1519,0.162,49.57,57.39,33.19,35.07
"2016-05-14 08:40:00",235409,0.524,355.1,13.74,69.04,712.3973,0,873.1283,0,-3.475,3.134,194,13.54,12.97,113.7013,0.16,49.57,57.33,33.19,35.06
"2016-05-14 08:50:00",235410,0.526,10.83,14.01,69.37,751.267,0,873.1266,0,-3.429,3.135,198,13.53,12.95,117.7631,0.157,49.57,57.39,33.19,35.07
"2016-05-14 09:00:00",235411,0.693,346.6,14.09,69.86,717.5075,0,872.9703,0,-2.961,3.13,198,13.53,12.97,111.7723,0.156,49.51,57.33,33.18,35.06
"2016-05-14 09:10:00",235412,0.753,353.5,13.91,70.22,735.9521,0,872.8502,0,-2.659,3.128,209,13.51,13,116.2434,0.158,49.57,57.33,33.19,35.06
"2016-05-14 09:20:00",235413,0.569,7.299,14.21,69.34,729.3974,0,872.6228,0,-3.719,3.135,203,13.47,12.94,116.449,0.16,49.51,57.33,33.18,35.06
"2016-05-14 09:30:00",235414,0.588,354.4,14.54,68.26,811.4871,0,872.6544,0,-3.799,3.132,185,13.5,12.93,129.9968,0.16,49.57,57.33,33.19,35.06
"2016-05-14 09:40:00",235415,0.702,351.4,14.89,66.81,865.7018,0,872.7807,0,-3.732,3.133,200,13.46,12.93,138.6838,0.16,49.51,57.33,33.18,35.06
"2016-05-14 09:50:00",235416,0.433,299.3,15.21,67.23,847.9639,0,872.9639,0,-4.042,3.132,188,13.49,12.93,136.4262,0.16,49.57,57.33,33.19,35.06
"2016-05-14 10:00:00",235417,0.467,324.9,15.67,66.04,946.392,0,873.0419,0,-4.496,3.135,194,13.53,12.93,151.8481,0.16,49.51,57.33,33.18,35.06
"2016-05-14 10:10:00",235418,0.678,13.21,15.84,64.46,957.0396,0,872.9555,0,-3.114,3.123,190,13.52,12.92,153.3313,0.16,49.51,57.33,33.18,35.06
"2016-05-14 10:20:00",235419,0.599,4.043,16.05,63.91,939.3221,0,872.9576,0,-3.962,3.128,208,13.48,12.92,151.3169,0.161,49.62,57.33,33.2,35.06
"2016-05-14 10:30:00",235420,0.508,8.73,16.47,62.46,982.3408,0,872.8747,0,-4.197,3.128,188,13.57,12.87,159.7142,0.163,49.51,57.33,33.18,35.06
"2016-05-14 10:40:00",235421,0.593,320.8,16.51,60.74,1024.025,0,872.8713,0,-2.462,3.114,208,13.54,12.83,167.662,0.164,49.51,57.33,33.18,35.06
"2016-05-14 10:50:00",235422,0.814,329.8,16.6,60.48,1036.816,0,872.8879,0,-3.309,3.118,204,13.61,12.79,170.0432,0.164,49.51,57.33,33.18,35.06
"2016-05-14 11:00:00",235423,0.746,10.18,16.92,58.66,1048.061,0,872.8704,0,-3.279,3.117,240,13.7,12.75,172.7235,0.165,49.46,57.27,33.16,35.05
"2016-05-14 11:10:00",235424,0.777,11.84,17.44,56.69,1043.446,0,872.8726,0,-3.011,3.113,205,13.77,12.73,172.134,0.165,49.51,57.27,33.18,35.05
"2016-05-14 11:20:00",235425,0.756,299.6,17.41,55.7,1060.036,0,872.8676,0,-2.185,3.102,216,13.86,12.73,177.1357,0.167,49.46,57.27,33.16,35.05
"2016-05-14 11:30:00",235426,0.685,2.692,17.73,54.12,874.696,0,872.8697,0,-2.405,3.106,246,13.93,12.72,143.8008,0.164,49.46,57.27,33.16,35.05
"2016-05-14 11:40:00",235427,0.653,340.1,17.56,54.13,931.4446,0,872.8212,0,-3.561,3.117,205,14.03,12.74,156.2597,0.168,49.41,57.27,33.15,35.05
"2016-05-14 11:50:00",235428,0.554,318.5,17.77,53.7,980.7391,0,872.6536,0,-1.408,3.094,269,14.16,12.75,166.247,0.169,49.46,57.27,33.16,35.05
"2016-05-14 12:00:00",235429,0.709,324.8,18.14,52.93,963.4524,0,872.602,0,-1.367,3.092,209,14.25,12.75,163.5398,0.169,49.41,57.27,33.15,35.05
"2016-05-14 12:10:00",235430,0.739,311,18.61,52.25,961.5629,0,872.5876,0,-2.451,3.099,216,14.39,12.73,163.7615,0.17,49.41,57.33,33.15,35.06
"2016-05-14 12:20:00",235431,0.853,325.3,18.59,51.48,1034.005,0,872.4477,0,-1.728,3.095,221,14.51,12.73,177.6264,0.172,49.41,57.27,33.15,35.05
"2016-05-14 12:30:00",235432,0.587,276.9,18.82,51.63,1007.677,0,872.4608,0,-2.828,3.102,219,14.59,12.73,172.4263,0.171,49.41,57.27,33.15,35.05
"2016-05-14 12:40:00",235433,0.46,298.2,19.06,51.62,935.8071,0,872.4064,0,-3.741,3.112,206,14.71,12.72,157.5661,0.167,49.41,57.22,33.15,35.03
"2016-05-14 12:50:00",235434,0.695,308.2,19.06,51.4,1030.036,0,872.3597,0,-2.676,3.101,214,14.84,12.72,175.7975,0.171,49.35,57.22,33.14,35.03
"2016-05-14 13:00:00",235435,0.474,320.2,19.1,50.87,1003.385,0,872.3025,0,-3.21,3.102,208,14.92,12.72,170.5824,0.17,49.35,57.22,33.14,35.03
"2016-05-14 13:10:00",235436,0.629,348,19.87,48.95,904.1322,0,872.2079,0,-4.058,3.11,206,15.08,12.7,151.3694,0.163,49.35,57.33,33.14,35.06
"2016-05-14 13:20:00",235437,0.817,345.1,19.38,48.08,887.0774,0,872.1064,0,-2.753,3.102,204,15.18,12.69,148.8679,0.168,49.35,57.22,33.14,35.03
"2016-05-14 13:30:00",235438,0.64,296.9,19.22,48.55,981.5778,0,872.0769,0,-3.26,3.103,278,15.24,12.68,170.0245,0.173,49.3,57.22,33.12,35.03
"2016-05-14 13:40:00",235439,0.801,313.4,19.19,46.75,873.6592,0,871.9471,0,-3.396,3.105,197,15.4,12.67,149.3023,0.171,49.3,57.22,33.12,35.03
"2016-05-14 13:50:00",235440,0.521,298,19.74,44.99,879.9796,0,871.8318,0,-2.941,3.099,222,15.5,12.67,149.6122,0.17,49.24,57.22,33.11,35.03
"2016-05-14 14:00:00",235441,0.559,281.3,19.54,44.02,859.7823,0,871.8373,0,-3.127,3.101,207,15.59,12.68,144.6924,0.168,49.24,57.22,33.11,35.03
"2016-05-14 14:10:00",235442,0.753,281.3,19.15,43.14,815.4721,0,871.8352,0,-3.405,3.106,206,15.74,12.74,136.3725,0.167,49.24,57.22,33.11,35.03
"2016-05-14 14:20:00",235443,0.63,301.6,19.4,40.8,869.0284,0,871.8395,0,-1.842,3.09,239,15.85,12.79,142.1545,0.163,49.24,57.16,33.11,35.02
"2016-05-14 14:30:00",235444,0.732,350.1,19.69,39.48,836.0038,0,871.8223,0,-4.82,3.116,194,15.91,12.8,129.692,0.155,49.24,57.16,33.11,35.02
"2016-05-14 14:40:00",235445,0.533,273.9,19.75,39.39,790.6214,0,871.8292,0,-2.901,3.1,197,16,12.77,111.7496,0.141,49.19,57.16,33.09,35.02
"2016-05-14 14:50:00",235446,0.708,270.8,19.67,38.93,723.8988,0,871.7084,0,-3.704,3.108,196,16.1,12.74,89.2966,0.123,49.19,57.16,33.09,35.02
"2016-05-14 15:00:00",235447,0.673,345.5,19.32,38.25,663.1234,0,871.6849,0,-3.189,3.103,187,16.21,12.73,68.58665,0.103,49.13,57.16,33.08,35.02
"2016-05-14 15:10:00",235448,0.52,294.1,19.43,38.37,515.4275,0,871.5803,0,-3.325,3.105,225,16.25,12.74,47.79259,0.094,49.19,57.16,33.09,35.02
"2016-05-14 15:20:00",235449,0.477,61.07,19.4,38.93,207.2486,0,871.5916,0,-2.316,3.095,203,16.37,12.82,34.53616,0.176,49.13,57.16,33.08,35.02
"2016-05-14 15:30:00",235450,0.479,285.2,19.5,38.74,135.0163,0,871.607,0,-3.177,3.103,206,16.45,12.88,27.05293,0.2,49.08,57.16,33.07,35.02
"2016-05-14 15:40:00",235451,0.501,264,19.37,39.53,129.6209,0,871.6619,0,-4.362,3.116,186,16.53,12.88,24.81931,0.191,49.13,57.16,33.08,35.02
"2016-05-14 15:50:00",235452,0.341,190.4,19.47,40.4,111.6073,0,871.6098,0,-3.832,3.109,208,16.63,12.94,21.58123,0.193,49.08,57.16,33.07,35.02
"2016-05-14 16:00:00",235453,0.337,165.7,19.37,41,100.2503,0,871.5573,0,-4.669,3.118,199,16.64,13.01,18.92597,0.189,49.03,57.16,33.05,35.02
"2016-05-14 16:10:00",235454,0.351,148.6,19.09,41.21,90.74664,0,871.4668,0,-4.588,3.12,220,16.69,13.01,16.67963,0.184,49.08,57.16,33.07,35.02
"2016-05-14 16:20:00",235455,0.317,165.7,18.92,42.64,81.997,0,871.3573,0,-4.803,3.123,190,16.77,13.03,14.09986,0.172,49.03,57.1,33.05,35.01
"2016-05-14 16:30:00",235456,0.293,106.7,18.91,41.61,90.79001,0,871.5762,0,-3.905,3.112,195,16.84,13.06,14.01652,0.156,48.97,57.1,33.04,35.01
"2016-05-14 16:40:00",235457,0.325,181.5,18.98,43.04,99.18616,0,871.61,0,-3.252,3.108,217,16.85,13.07,14.01273,0.143,48.97,57.1,33.04,35.01
"2016-05-14 16:50:00",235458,0.365,115.9,18.82,46.19,106.6472,0,871.6142,0,-2.99,3.105,210,16.9,13.13,16.8274,0.158,48.97,57.1,33.04,35.01
"2016-05-14 17:00:00",235459,0.31,176.5,18.69,50.25,96.75022,0,871.7573,0,-2.64,3.103,215,16.98,13.13,14.58855,0.15,48.97,57.1,33.04,35.01
"2016-05-14 17:10:00",235460,0.12,152.2,18.37,52.83,95.09614,0,871.8521,0,-2.751,3.105,218,16.97,13.14,13.85363,0.145,48.92,57.1,33.03,35.01
"2016-05-14 17:20:00",235461,0.2,146.8,18.2,54.22,72.51257,0,871.8331,0,-1.376,3.094,298,16.99,13.22,9.576693,0.131,48.92,57.04,33.03,34.99
"2016-05-14 17:30:00",235462,0.312,102.8,17.78,55.79,58.97736,0,871.9152,0,-1.289,3.095,314,17,13.25,7.227979,0.122,48.92,57.04,33.03,34.99
"2016-05-14 17:40:00",235463,0.247,116.9,17.3,57.22,60.20319,0,872.0836,0,-2.184,3.106,230,16.94,13.27,7.826522,0.13,48.92,57.04,33.03,34.99
"2016-05-14 17:50:00",235464,0.533,72.27,16.99,57.02,62.73343,0,872.1152,0,-1.731,3.103,229,16.91,13.25,9.076644,0.145,48.92,57.04,33.03,34.99
"2016-05-14 18:00:00",235465,0.281,102.2,16.71,59.23,54.65945,0,872.2794,0,-1.793,3.105,209,16.85,13.31,8.144734,0.149,48.92,57.04,33.03,34.99
"2016-05-14 18:10:00",235466,0.22,81.2,16.53,59.04,46.95087,0,872.4521,0,-2.006,3.108,238,16.89,13.29,7.299955,0.155,48.92,57.04,33.03,34.99
"2016-05-14 18:20:00",235467,0.209,81.8,16.25,60.26,34.19752,0,872.6205,0,-3.357,3.123,244,16.87,13.3,5.280818,0.154,48.86,56.98,33.01,34.98
"2016-05-14 18:30:00",235468,0.455,64.97,15.81,60.92,18.02992,0,872.6627,0,-2.657,3.119,233,16.83,13.38,2.416903,0.131,48.81,56.98,33,34.98
"2016-05-14 18:40:00",235469,0.471,57.59,15.36,62.09,7.146747,0,872.85,0,-3.848,3.132,240,16.83,13.41,0.67052,0.095,48.81,56.98,33,34.98
"2016-05-14 18:50:00",235470,0.12,40.97,15.21,63.27,1.500856,0,872.9027,0,-0.622,3.102,313,16.78,13.4,0.09091797,0.026,48.86,56.98,33.01,34.98
"2016-05-14 19:00:00",235471,0.298,37.56,14.96,63.65,0,0,873.0353,0,-0.781,3.104,291,16.8,13.39,0,0,48.86,56.98,33.01,34.98
"2016-05-14 19:10:00",235472,0.138,59.58,14.84,63.9,0,0,873.1512,0,-0.792,3.105,306,16.76,13.49,0,0,48.81,56.98,33,34.98
"2016-05-14 19:20:00",235473,0.277,19.16,14.68,64.91,0,0,873.3785,0,-0.719,3.105,331,16.79,13.54,0,0,48.81,56.93,33,34.97
"2016-05-14 19:30:00",235474,0.003,52.58,14.56,65.57,0,0,873.3932,0,-0.297,3.102,338,16.71,13.52,0,0,48.81,56.93,33,34.97
"2016-05-14 19:40:00",235475,0.274,39.06,14.29,65.77,0,0,873.5954,0,-0.514,3.105,336,16.67,13.54,0,0,48.81,56.98,33,34.98
"2016-05-14 19:50:00",235476,0.183,85.1,14.07,66.87,0,0,873.6337,0,-3.011,3.131,255,16.66,13.61,0,0,48.81,56.93,33,34.97
"2016-05-14 20:00:00",235477,0.279,99.2,13.81,68.28,0,0,873.6591,0,-2.793,3.13,253,16.62,13.67,0,0,48.81,56.98,33,34.98
"2016-05-14 20:10:00",235478,0.158,59.73,13.67,69.05,0,0,873.6562,0,-3.935,3.142,219,16.6,13.67,0,0,48.81,56.93,33,34.97
"2016-05-14 20:20:00",235479,0.13,44.61,13.62,69.96,0,0,873.9012,0,-4.865,3.151,193,16.53,13.69,0,0,48.75,56.93,32.99,34.97
"2016-05-14 20:30:00",235480,0.123,54.37,13.57,71.26,0,0,873.9293,0,-5.39,3.157,194,16.55,13.74,0,0,48.81,56.93,33,34.97
"2016-05-14 20:40:00",235481,0.167,117.5,13.3,72.36,0,0,873.9639,0,-5.5,3.16,187,16.54,13.78,0,0,48.75,56.93,32.99,34.97
"2016-05-14 20:50:00",235482,0.168,136.5,13.15,73.6,0,0,873.981,0,-5.473,3.159,193,16.5,13.83,0,0,48.81,56.93,33,34.97
"2016-05-14 21:00:00",235483,0.297,56.17,13.15,73.89,0,0,874.1005,0,-5.347,3.158,194,16.45,13.83,0.03410525,0,48.75,56.93,32.99,34.97
"2016-05-14 21:10:00",235484,0.308,116.5,13.06,74.8,0,0,873.9951,0,-5.635,3.162,188,16.39,13.81,0,0,48.75,56.87,32.99,34.95
"2016-05-14 21:20:00",235485,0.079,166.9,12.95,75.59,0,0,873.9707,0,-5.563,3.162,188,16.37,13.77,0,0,48.75,56.87,32.99,34.95
"2016-05-14 21:30:00",235486,0.188,186.6,12.79,76.58,0,0,873.9825,0,-5.742,3.164,178,16.3,13.76,0,0,48.75,56.87,32.99,34.95
"2016-05-14 21:40:00",235487,0.074,3.623,12.77,77.2,0,0,874.1797,0,-5.002,3.157,196,16.3,13.76,0.1440025,0,48.75,56.87,32.99,34.95
"2016-05-14 21:50:00",235488,0.229,139.1,12.65,77.96,0,0,874.1106,0,-4.675,3.155,205,16.22,13.9,0.07200127,0,48.75,56.87,32.99,34.95
"2016-05-14 22:00:00",235489,0.273,131.7,12.53,79.07,0,0,874.1233,0,-4.83,3.157,206,16.24,13.93,0,0,48.75,56.87,32.99,34.95
"2016-05-14 22:10:00",235490,0.123,159.7,12.4,80,0,0,873.9885,0,-4.757,3.157,209,16.2,13.9,0,0,48.75,56.87,32.99,34.95
"2016-05-14 22:20:00",235491,0.125,165.6,12.35,80.4,0,0,873.978,0,-4.193,3.151,208,16.13,13.89,0,0,48.75,56.87,32.99,34.95
"2016-05-14 22:30:00",235492,0.376,120.5,12.31,81.2,0,0,873.9949,0,-1.822,3.129,279,16.07,13.89,0,0,48.75,56.81,32.99,34.94
"2016-05-14 22:40:00",235493,0.24,139.1,12.21,82.3,0,0,873.9843,0,-1.923,3.13,266,16.07,13.88,0,0,48.7,56.81,32.97,34.94
"2016-05-14 22:50:00",235494,0.175,155,12.26,82.4,0,0,874.0159,0,-2.713,3.137,238,16.02,13.89,0.1553712,0,48.75,56.81,32.99,34.94
"2016-05-14 23:00:00",235495,0,0,12.38,81.4,0,0,874.155,0,-4.246,3.152,205,15.97,13.9,0.3296901,0,48.75,56.81,32.99,34.94
"2016-05-14 23:10:00",235496,0.029,40.95,12.28,83,0,0,874.2307,0,-4.834,3.158,200,15.92,13.96,0.0644222,0,48.75,56.81,32.99,34.94
"2016-05-14 23:20:00",235497,0.014,103.3,12.17,85.7,0,0,874.2307,0,-5.096,3.162,197,15.88,13.99,0,0,48.75,56.81,32.99,34.94
"2016-05-14 23:30:00",235498,0.065,124.4,11.92,88,0,0,874.2307,0,-5.382,3.166,177,15.9,14,0,0,48.7,56.81,32.97,34.94
"2016-05-14 23:40:00",235499,0.149,162.6,11.86,88.8,0,0,874.1191,0,-5.509,3.167,182,15.8,14.01,0,0,48.75,56.75,32.99,34.93
"2016-05-14 23:50:00",235500,0,0,11.91,89,0,0,873.9822,0,-5.713,3.169,191,15.8,14.02,0,0,48.75,56.75,32.99,34.93
